Location: Corcelles
(46.1547°N, 4.7234°E)
Time: 04:35:35
(UTC+00:00)

SL-16 R/B - Pass Details

Date: 14 July 2020
Orbit: 842 x 846 km, 71.0° (Epoch: 06 August)

Event Time Altitude Azimuth Distance (km) Brightness Sun altitude
Rises 02:02:31 0° 339° (NNW) 3,417 5.9 -15.6°
Reaches altitude 10° 02:05:21 10° 351° (N) 2,478 5.3 -15.3°
Maximum altitude 02:10:09 27° 49° (NE) 1,574 4.5 -14.9°
Drops below altitude 10° 02:14:55 10° 106° (ESE) 2,467 4.9 -14.4°
Sets 02:17:44 0° 119° (ESE) 3,398 5.4 -14.1°
